| time (UTC) | temp F | wind direction | speed MPH | gust MPH | rain 1hr in | rain 24hr in | rain mn in | humidity % | barometer mb |
| 20260506101919 | 60 | 314 | 6.0 | 7.0 | 0.00 | 0.00 | 0.00 | 72 | 1011.1 |
| 20260506101414 | 59 | 338 | 6.0 | 7.0 | 0.00 | 0.00 | 0.00 | 73 | 1011.1 |
| 20260506100913 | 60 | 311 | 4.0 | 7.0 | 0.00 | 0.00 | 0.00 | 73 | 1010.9 |
| 20260506100411 | 60 | 24 | 3.0 | 5.0 | 0.00 | 0.00 | 0.00 | 73 | 1010.8 |
| 20260506095908 | 60 | 340 | 3.0 | 10.0 | 0.00 | 0.00 | 0.00 | 74 | 1010.9 |
| 20260506095406 | 60 | 33 | 5.0 | 10.0 | 0.00 | 0.00 | 0.00 | 74 | 1010.8 |
| 20260506094902 | 60 | 354 | 6.0 | 10.0 | 0.00 | 0.00 | 0.00 | 74 | 1010.8 |
| 20260506094401 | 60 | 339 | 5.0 | 6.0 | 0.00 | 0.00 | 0.00 | 75 | 1011.0 |
| 20260506093858 | 59 | 13 | 3.0 | 9.0 | 0.00 | 0.00 | 0.00 | 76 | 1010.9 |
| 20260506093356 | 59 | 23 | 2.0 | 5.0 | 0.00 | 0.00 | 0.00 | 76 | 1010.7 |
| 20260506092853 | 60 | 13 | 4.0 | 6.0 | 0.00 | 0.00 | 0.00 | 75 | 1011.0 |
| 20260506092351 | 60 | 10 | 5.0 | 7.0 | 0.00 | 0.00 | 0.00 | 75 | 1010.7 |
| 20260506091847 | 60 | 339 | 2.0 | 6.0 | 0.00 | 0.00 | 0.00 | 75 | 1010.8 |
| 20260506091346 | 60 | 287 | 3.0 | 7.0 | 0.00 | 0.00 | 0.00 | 75 | 1010.8 |
| 20260506090843 | 60 | 336 | 6.0 | 10.0 | 0.00 | 0.00 | 0.00 | 75 | 1010.7 |
| 20260506090340 | 60 | 346 | 5.0 | 10.0 | 0.00 | 0.00 | 0.00 | 74 | 1010.7 |
| 20260506085837 | 60 | 18 | 3.0 | 8.0 | 0.00 | 0.00 | 0.00 | 74 | 1010.6 |
| 20260506085333 | 60 | 14 | 4.0 | 5.0 | 0.00 | 0.00 | 0.00 | 75 | 1010.7 |
| 20260506084830 | 60 | 336 | 8.0 | 10.0 | 0.00 | 0.00 | 0.00 | 75 | 1010.5 |
| 20260506084327 | 61 | 355 | 5.0 | 11.0 | 0.00 | 0.00 | 0.00 | 74 | 1010.6 |
| 20260506083823 | 61 | 44 | 5.0 | 8.0 | 0.00 | 0.00 | 0.00 | 74 | 1010.4 |
| 20260506083321 | 61 | 19 | 5.0 | 6.0 | 0.00 | 0.00 | 0.00 | 74 | 1010.5 |
| 20260506082818 | 61 | 6 | 3.0 | 8.0 | 0.00 | 0.00 | 0.00 | 74 | 1010.3 |
| 20260506082314 | 61 | 22 | 1.0 | 6.0 | 0.00 | 0.00 | 0.00 | 74 | 1010.2 |
| 20260506081811 | 61 | 24 | 3.0 | 6.0 | 0.00 | 0.00 | 0.00 | 74 | 1010.2 |
| 20260506081309 | 61 | 7 | 1.0 | 5.0 | 0.00 | 0.00 | 0.00 | 74 | 1010.1 |
| 20260506080806 | 61 | 356 | 4.0 | 9.0 | 0.00 | 0.00 | 0.00 | 74 | 1009.9 |
| 20260506080302 | 61 | 36 | 5.0 | 7.0 | 0.00 | 0.00 | 0.00 | 74 | 1009.9 |
| 20260506073246 | 62 | 28 | 5.0 | 9.0 | 0.00 | 0.00 | 0.00 | 74 | 1010.1 |
| 20260506072743 | 62 | 22 | 5.0 | 9.0 | 0.00 | 0.00 | 0.00 | 75 | 1010.2 |
| 20260506072241 | 62 | 347 | 6.0 | 8.0 | 0.00 | 0.00 | 0.00 | 74 | 1010.3 |
| 20260506071739 | 63 | 6 | 1.0 | 3.0 | 0.00 | 0.00 | 0.00 | 74 | 1010.4 |
| 20260506071236 | 63 | 17 | 6.0 | 8.0 | 0.00 | 0.00 | 0.00 | 74 | 1010.1 |
| 20260506070733 | 62 | 330 | 3.0 | 9.0 | 0.00 | 0.00 | 0.00 | 75 | 1010.2 |
| 20260506070230 | 62 | 359 | 4.0 | 9.0 | 0.00 | 0.00 | 0.00 | 75 | 1010.2 |
| 20260506062207 | 63 | 352 | 6.0 | 11.0 | 0.00 | 0.00 | 0.00 | 75 | 1010.0 |
| 20260506061703 | 63 | 45 | 5.0 | 17.0 | 0.00 | 0.00 | 0.00 | 75 | 1010.0 |
| 20260506061201 | 63 | 1 | 4.0 | 8.0 | 0.00 | 0.00 | 0.00 | 74 | 1010.2 |
| 20260506060659 | 64 | 10 | 4.0 | 10.0 | 0.00 | 0.00 | 0.00 | 74 | 1009.8 |
| 20260506060155 | 64 | 7 | 3.0 | 7.0 | 0.00 | 0.00 | 0.00 | 74 | 1010.2 |
| 20260506051127 | 66 | 25 | 6.0 | 8.0 | 0.00 | 0.00 | 0.00 | 74 | 1009.8 |
| 20260506050626 | 66 | 37 | 4.0 | 8.0 | 0.00 | 0.00 | 0.00 | 74 | 1009.9 |
| 20260506050122 | 66 | 31 | 5.0 | 11.0 | 0.00 | 0.00 | 0.00 | 75 | 1009.8 |
| 20260506045116 | 67 | 349 | 8.0 | 10.0 | 0.00 | 0.02 | 0.02 | 74 | 1009.8 |
| 20260506044614 | 68 | 2 | 3.0 | 6.0 | 0.00 | 0.02 | 0.02 | 73 | 1009.8 |
| 20260506044110 | 67 | 355 | 4.0 | 6.0 | 0.00 | 0.02 | 0.02 | 74 | 1009.7 |
| 20260506043607 | 68 | 2 | 3.0 | 11.0 | 0.00 | 0.02 | 0.02 | 74 | 1009.7 |
| 20260506043106 | 68 | 339 | 7.0 | 9.0 | 0.00 | 0.02 | 0.02 | 74 | 1009.8 |
| 20260506042605 | 69 | 328 | 9.0 | 11.0 | 0.00 | 0.02 | 0.02 | 72 | 1009.5 |
| 20260506042102 | 70 | 354 | 3.0 | 5.0 | 0.00 | 0.02 | 0.02 | 73 | 1009.5 |
| 20260506041601 | 70 | 359 | 6.0 | 8.0 | 0.00 | 0.02 | 0.02 | 72 | 1009.3 |
| 20260506041057 | 70 | 14 | 3.0 | 7.0 | 0.00 | 0.02 | 0.02 | 72 | 1009.2 |
| 20260506040555 | 70 | 7 | 6.0 | 9.0 | 0.00 | 0.02 | 0.02 | 72 | 1009.1 |
| 20260506040051 | 71 | 14 | 7.0 | 11.0 | 0.00 | 0.02 | 0.02 | 72 | 1009.0 |
| 20260506035548 | 71 | 342 | 5.0 | 8.0 | 0.00 | 0.02 | 0.02 | 72 | 1008.8 |
| 20260506035044 | 71 | 330 | 8.0 | 13.0 | 0.00 | 0.02 | 0.02 | 72 | 1009.0 |
| 20260506034542 | 72 | 347 | 9.0 | 14.0 | 0.00 | 0.02 | 0.02 | 72 | 1009.1 |
| 20260506034039 | 72 | 356 | 3.0 | 6.0 | 0.00 | 0.02 | 0.02 | 72 | 1008.8 |
| 20260506033536 | 72 | 342 | 5.0 | 13.0 | 0.00 | 0.02 | 0.02 | 72 | 1008.7 |
| 20260506033033 | 72 | 36 | 5.0 | 10.0 | 0.00 | 0.02 | 0.02 | 72 | 1008.6 |
| 20260506032530 | 72 | 357 | 8.0 | 9.0 | 0.00 | 0.02 | 0.02 | 71 | 1008.7 |
| 20260506032027 | 73 | 13 | 5.0 | 8.0 | 0.00 | 0.02 | 0.02 | 71 | 1008.6 |
| 20260506031525 | 73 | 12 | 5.0 | 9.0 | 0.00 | 0.02 | 0.02 | 71 | 1008.4 |
| 20260506031021 | 73 | 338 | 11.0 | 14.0 | 0.00 | 0.02 | 0.02 | 70 | 1008.3 |
| 20260506030520 | 74 | 14 | 6.0 | 7.0 | 0.00 | 0.02 | 0.02 | 69 | 1008.4 |
| 20260506030016 | 74 | 336 | 7.0 | 11.0 | 0.00 | 0.02 | 0.02 | 68 | 1008.3 |
| 20260506025513 | 74 | 350 | 6.0 | 11.0 | 0.00 | 0.02 | 0.02 | 67 | 1008.1 |
| 20260506025009 | 75 | 341 | 9.0 | 13.0 | 0.00 | 0.02 | 0.02 | 67 | 1007.8 |
| 20260506024507 | 75 | 18 | 2.0 | 6.0 | 0.00 | 0.02 | 0.02 | 67 | 1008.0 |
| 20260506024002 | 75 | 315 | 3.0 | 8.0 | 0.00 | 0.02 | 0.02 | 67 | 1007.7 |
| 20260506023459 | 75 | 311 | 6.0 | 13.0 | 0.00 | 0.02 | 0.02 | 67 | 1007.9 |
| 20260506022956 | 75 | 349 | 6.0 | 10.0 | 0.00 | 0.02 | 0.02 | 67 | 1007.2 |
| 20260506022454 | 75 | 344 | 2.0 | 9.0 | 0.00 | 0.02 | 0.02 | 67 | 1007.2 |
| 20260506021951 | 75 | 28 | 5.0 | 8.0 | 0.00 | 0.02 | 0.02 | 67 | 1007.1 |
| 20260506021449 | 75 | 33 | 3.0 | 8.0 | 0.00 | 0.02 | 0.02 | 67 | 1006.7 |
| 20260506020946 | 75 | 25 | 4.0 | 10.0 | 0.00 | 0.02 | 0.02 | 67 | 1006.9 |
| 20260506020443 | 76 | 16 | 2.0 | 5.0 | 0.00 | 0.02 | 0.02 | 67 | 1006.8 |
| 20260506015940 | 76 | 341 | 2.0 | 7.0 | 0.00 | 0.02 | 0.02 | 67 | 1006.7 |
| 20260506015438 | 76 | 289 | 5.0 | 8.0 | 0.00 | 0.02 | 0.02 | 67 | 1006.5 |
| 20260506014934 | 77 | 339 | 4.0 | 8.0 | 0.00 | 0.02 | 0.02 | 68 | 1006.5 |
| 20260506014431 | 77 | 3 | 3.0 | 6.0 | 0.00 | 0.02 | 0.02 | 68 | 1006.6 |
| 20260506013928 | 77 | 330 | 3.0 | 5.0 | 0.00 | 0.02 | 0.02 | 67 | 1006.4 |
| 20260506013426 | 77 | 2 | 1.0 | 7.0 | 0.00 | 0.02 | 0.02 | 67 | 1006.0 |
| 20260506012922 | 77 | 335 | 5.0 | 7.0 | 0.00 | 0.02 | 0.02 | 67 | 1006.0 |
| 20260506012418 | 78 | 319 | 10.0 | 14.0 | 0.00 | 0.02 | 0.02 | 67 | 1006.2 |
| 20260506011916 | 78 | 272 | 3.0 | 8.0 | 0.00 | 0.02 | 0.02 | 66 | 1006.2 |
| 20260506011413 | 79 | 341 | 4.0 | 10.0 | 0.00 | 0.02 | 0.02 | 66 | 1006.2 |
| 20260506010910 | 79 | 343 | 5.0 | 8.0 | 0.00 | 0.02 | 0.02 | 67 | 1006.0 |
| 20260506010408 | 79 | 343 | 3.0 | 3.0 | 0.00 | 0.02 | 0.02 | 67 | 1006.1 |
| 20260506005904 | 79 | 352 | 1.0 | 2.0 | 0.00 | 0.02 | 0.02 | 67 | 1005.7 |
| 20260506005402 | 79 | 334 | 6.0 | 8.0 | 0.00 | 0.02 | 0.02 | 67 | 1005.6 |
| 20260506004857 | 79 | 9 | 2.0 | 7.0 | 0.00 | 0.02 | 0.02 | 69 | 1005.3 |
| 20260506004355 | 78 | 348 | 3.0 | 9.0 | 0.00 | 0.02 | 0.02 | 69 | 1005.4 |
| 20260506003851 | 79 | 343 | 3.0 | 5.0 | 0.00 | 0.02 | 0.02 | 71 | 1005.4 |
| 20260506003347 | 79 | 12 | 3.0 | 7.0 | 0.00 | 0.02 | 0.02 | 71 | 1005.6 |
| 20260506002844 | 79 | 348 | 5.0 | 8.0 | 0.00 | 0.02 | 0.02 | 71 | 1005.6 |
| 20260506002340 | 78 | 3 | 1.0 | 2.0 | 0.00 | 0.02 | 0.02 | 74 | 1005.9 |
| 20260506001836 | 78 | 340 | 3.0 | 5.0 | 0.00 | 0.02 | 0.02 | 72 | 1005.6 |
| 20260506001333 | 78 | 318 | 4.0 | 7.0 | 0.05 | 0.02 | 0.02 | 72 | 1005.6 |
| 20260506000830 | 80 | 8 | 9.0 | 13.0 | 0.12 | 0.02 | 0.02 | 68 | 1005.6 |
| 20260506000330 | 85 | 300 | 3.0 | 6.0 | 0.00 | 0.00 | 0.00 | 59 | 1005.1 |
| 20260505235825 | 84 | 342 | 6.0 | 11.0 | 0.00 | 0.00 | 0.00 | 60 | 1005.0 |
| 20260505235322 | 84 | 302 | 5.0 | 10.0 | 0.00 | 0.00 | 0.00 | 70 | 1004.6 |
| 20260505234819 | 84 | 294 | 3.0 | 7.0 | 0.00 | 0.00 | 0.00 | 69 | 1004.5 |
| 20260505234317 | 85 | 209 | 5.0 | 9.0 | 0.00 | 0.00 | 0.00 | 69 | 1004.2 |
| 20260505233813 | 85 | 235 | 5.0 | 14.0 | 0.00 | 0.00 | 0.00 | 69 | 1004.3 |
| 20260505233311 | 86 | 193 | 9.0 | 9.0 | 0.00 | 0.00 | 0.00 | 68 | 1004.8 |
| 20260505232808 | 86 | 184 | 8.0 | 10.0 | 0.00 | 0.00 | 0.00 | 68 | 1004.5 |
| 20260505232306 | 86 | 188 | 8.0 | 13.0 | 0.00 | 0.00 | 0.00 | 67 | 1004.3 |
| 20260505231802 | 87 | 174 | 7.0 | 13.0 | 0.00 | 0.00 | 0.00 | 66 | 1004.4 |
| 20260505231301 | 87 | 176 | 5.0 | 7.0 | 0.00 | 0.00 | 0.00 | 64 | 1004.4 |
| 20260505230758 | 87 | 134 | 7.0 | 11.0 | 0.00 | 0.00 | 0.00 | 65 | 1004.3 |
| 20260505230255 | 88 | 174 | 9.0 | 13.0 | 0.00 | 0.00 | 0.00 | 63 | 1004.4 |
| 20260505225752 | 88 | 184 | 5.0 | 13.0 | 0.00 | 0.00 | 0.00 | 62 | 1004.3 |
| 20260505225249 | 89 | 146 | 5.0 | 10.0 | 0.00 | 0.00 | 0.00 | 61 | 1004.1 |
| 20260505224744 | 89 | 178 | 6.0 | 10.0 | 0.00 | 0.00 | 0.00 | 60 | 1003.9 |
| 20260505224242 | 89 | 191 | 5.0 | 9.0 | 0.00 | 0.00 | 0.00 | 61 | 1004.0 |
| 20260505223739 | 88 | 195 | 5.0 | 10.0 | 0.00 | 0.00 | 0.00 | 61 | 1003.9 |
| 20260505223235 | 89 | 171 | 7.0 | 10.0 | 0.00 | 0.00 | 0.00 | 62 | 1004.0 |
| 20260505222731 | 90 | 145 | 7.0 | 14.0 | 0.00 | 0.00 | 0.00 | 60 | 1004.0 |
| 20260505222228 | 89 | 223 | 3.0 | 9.0 | 0.00 | 0.00 | 0.00 | 60 | 1004.0 |
| 20260505221725 | 90 | 177 | 8.0 | 9.0 | 0.00 | 0.00 | 0.00 | 56 | 1004.0 |
| 20260505221221 | 90 | 237 | 5.0 | 7.0 | 0.00 | 0.00 | 0.00 | 56 | 1004.0 |
| 20260505220718 | 89 | 237 | 7.0 | 14.0 | 0.00 | 0.00 | 0.00 | 56 | 1004.0 |
| 20260505220216 | 90 | 235 | 5.0 | 11.0 | 0.00 | 0.00 | 0.00 | 56 | 1003.9 |
| 20260505215714 | 89 | 47 | 3.0 | 7.0 | 0.00 | 0.00 | 0.00 | 57 | 1004.1 |
| 20260505215212 | 90 | 232 | 5.0 | 13.0 | 0.00 | 0.00 | 0.00 | 56 | 1004.1 |
| 20260505214709 | 89 | 229 | 6.0 | 13.0 | 0.00 | 0.00 | 0.00 | 54 | 1003.9 |
| 20260505214207 | 90 | 267 | 6.0 | 8.0 | 0.00 | 0.00 | 0.00 | 56 | 1004.0 |
| 20260505213704 | 89 | 286 | 5.0 | 6.0 | 0.00 | 0.00 | 0.00 | 54 | 1004.1 |
| 20260505213201 | 90 | 298 | 4.0 | 14.0 | 0.00 | 0.00 | 0.00 | 54 | 1004.3 |
| 20260505212656 | 89 | 282 | 6.0 | 10.0 | 0.00 | 0.00 | 0.00 | 54 | 1004.4 |
| 20260505212154 | 89 | 259 | 3.0 | 9.0 | 0.00 | 0.00 | 0.00 | 53 | 1004.2 |
| 20260505211651 | 90 | 214 | 6.0 | 8.0 | 0.00 | 0.00 | 0.00 | 53 | 1004.5 |
| 20260505211148 | 89 | 205 | 6.0 | 14.0 | 0.00 | 0.00 | 0.00 | 53 | 1004.4 |
| 20260505210645 | 89 | 237 | 5.0 | 14.0 | 0.00 | 0.00 | 0.00 | 54 | 1004.3 |
| 20260505210142 | 89 | 271 | 9.0 | 11.0 | 0.00 | 0.00 | 0.00 | 53 | 1004.6 |
| 20260505205639 | 89 | 223 | 7.0 | 9.0 | 0.00 | 0.00 | 0.00 | 56 | 1004.6 |
| 20260505205137 | 89 | 180 | 5.0 | 8.0 | 0.00 | 0.00 | 0.00 | 55 | 1004.4 |
| 20260505204633 | 88 | 246 | 6.0 | 11.0 | 0.00 | 0.00 | 0.00 | 55 | 1004.8 |
| 20260505204132 | 88 | 258 | 7.0 | 14.0 | 0.00 | 0.00 | 0.00 | 57 | 1005.0 |
| 20260505203628 | 88 | 217 | 11.0 | 14.0 | 0.00 | 0.00 | 0.00 | 56 | 1004.8 |
| 20260505203125 | 88 | 250 | 9.0 | 13.0 | 0.00 | 0.00 | 0.00 | 56 | 1004.7 |
| 20260505202621 | 89 | 218 | 5.0 | 9.0 | 0.00 | 0.00 | 0.00 | 54 | 1004.9 |
| 20260505202117 | 88 | 240 | 9.0 | 15.0 | 0.00 | 0.00 | 0.00 | 56 | 1004.9 |
| 20260505201613 | 88 | 250 | 10.0 | 18.0 | 0.00 | 0.00 | 0.00 | 57 | 1004.9 |
| 20260505201111 | 87 | 220 | 9.0 | 11.0 | 0.00 | 0.00 | 0.00 | 57 | 1005.2 |
| 20260505200609 | 88 | 240 | 9.0 | 16.0 | 0.00 | 0.00 | 0.00 | 58 | 1004.9 |
| 20260505200106 | 88 | 236 | 12.0 | 17.0 | 0.00 | 0.00 | 0.00 | 59 | 1005.0 |
| 20260505195602 | 87 | 241 | 8.0 | 16.0 | 0.00 | 0.00 | 0.00 | 60 | 1005.1 |
| 20260505195100 | 86 | 208 | 10.0 | 14.0 | 0.00 | 0.00 | 0.00 | 62 | 1004.9 |
| 20260505194556 | 86 | 260 | 8.0 | 13.0 | 0.00 | 0.00 | 0.00 | 61 | 1005.1 |
| 20260505194052 | 86 | 212 | 9.0 | 16.0 | 0.00 | 0.00 | 0.00 | 62 | 1005.3 |
| 20260505193549 | 85 | 253 | 3.0 | 16.0 | 0.00 | 0.00 | 0.00 | 63 | 1005.3 |
| 20260505193047 | 87 | 263 | 13.0 | 18.0 | 0.00 | 0.00 | 0.00 | 61 | 1005.3 |
| 20260505192545 | 86 | 183 | 7.0 | 10.0 | 0.00 | 0.00 | 0.00 | 62 | 1005.2 |
| 20260505192042 | 86 | 169 | 7.0 | 14.0 | 0.00 | 0.00 | 0.00 | 62 | 1005.2 |
| 20260505191540 | 85 | 235 | 6.0 | 9.0 | 0.00 | 0.00 | 0.00 | 63 | 1005.2 |
| 20260505191038 | 85 | 195 | 7.0 | 10.0 | 0.00 | 0.00 | 0.00 | 63 | 1005.3 |
| 20260505190532 | 85 | 195 | 12.0 | 15.0 | 0.00 | 0.00 | 0.00 | 65 | 1005.2 |
| 20260505190029 | 85 | 238 | 7.0 | 11.0 | 0.00 | 0.00 | 0.00 | 64 | 1005.3 |
| 20260505185526 | 85 | 230 | 11.0 | 15.0 | 0.00 | 0.00 | 0.00 | 65 | 1005.7 |
| 20260505185022 | 84 | 244 | 6.0 | 11.0 | 0.00 | 0.00 | 0.00 | 66 | 1005.6 |
| 20260505184519 | 84 | 235 | 8.0 | 14.0 | 0.00 | 0.00 | 0.00 | 66 | 1005.7 |
| 20260505184016 | 84 | 175 | 12.0 | 15.0 | 0.00 | 0.00 | 0.00 | 66 | 1005.6 |
| 20260505183513 | 83 | 205 | 10.0 | 14.0 | 0.00 | 0.00 | 0.00 | 67 | 1005.9 |
| 20260505183010 | 83 | 218 | 12.0 | 14.0 | 0.00 | 0.00 | 0.00 | 68 | 1005.8 |
| 20260505182506 | 82 | 206 | 12.0 | 16.0 | 0.00 | 0.00 | 0.00 | 68 | 1005.8 |
| 20260505182003 | 83 | 204 | 8.0 | 11.0 | 0.00 | 0.00 | 0.00 | 68 | 1005.9 |
| 20260505181459 | 83 | 245 | 7.0 | 11.0 | 0.00 | 0.00 | 0.00 | 68 | 1005.9 |
| 20260505180956 | 83 | 212 | 9.0 | 15.0 | 0.00 | 0.00 | 0.00 | 68 | 1005.8 |
| 20260505180452 | 82 | 211 | 9.0 | 15.0 | 0.00 | 0.00 | 0.00 | 69 | 1006.0 |
| 20260505175949 | 82 | 193 | 8.0 | 14.0 | 0.00 | 0.00 | 0.00 | 69 | 1005.9 |
| 20260505175445 | 82 | 167 | 9.0 | 16.0 | 0.00 | 0.00 | 0.00 | 70 | 1005.8 |
| 20260505174942 | 81 | 202 | 6.0 | 11.0 | 0.00 | 0.00 | 0.00 | 70 | 1005.8 |
| 20260505174439 | 81 | 187 | 9.0 | 15.0 | 0.00 | 0.00 | 0.00 | 71 | 1005.9 |
| 20260505173936 | 81 | 204 | 11.0 | 16.0 | 0.00 | 0.00 | 0.00 | 71 | 1005.9 |
| 20260505173432 | 81 | 210 | 9.0 | 13.0 | 0.00 | 0.00 | 0.00 | 69 | 1006.1 |
| 20260505172929 | 81 | 191 | 8.0 | 16.0 | 0.00 | 0.00 | 0.00 | 70 | 1006.0 |
| 20260505172428 | 81 | 265 | 11.0 | 18.0 | 0.00 | 0.00 | 0.00 | 70 | 1006.0 |
| 20260505171926 | 81 | 249 | 7.0 | 16.0 | 0.00 | 0.00 | 0.00 | 70 | 1006.0 |
| 20260505171424 | 81 | 251 | 7.0 | 9.0 | 0.00 | 0.00 | 0.00 | 69 | 1005.8 |
| 20260505170920 | 81 | 212 | 8.0 | 13.0 | 0.00 | 0.00 | 0.00 | 69 | 1005.9 |
| 20260505170417 | 81 | 212 | 15.0 | 18.0 | 0.00 | 0.00 | 0.00 | 70 | 1006.1 |
| 20260505165913 | 80 | 236 | 10.0 | 14.0 | 0.00 | 0.00 | 0.00 | 70 | 1006.1 |
| 20260505165409 | 80 | 230 | 12.0 | 15.0 | 0.00 | 0.00 | 0.00 | 70 | 1006.1 |
| 20260505164904 | 80 | 203 | 11.0 | 15.0 | 0.00 | 0.00 | 0.00 | 71 | 1006.1 |
| 20260505164401 | 80 | 219 | 5.0 | 9.0 | 0.00 | 0.00 | 0.00 | 72 | 1006.0 |
| 20260505163859 | 79 | 194 | 8.0 | 13.0 | 0.00 | 0.00 | 0.00 | 72 | 1006.1 |
| 20260505163358 | 79 | 207 | 12.0 | 21.0 | 0.00 | 0.00 | 0.00 | 72 | 1006.1 |
| 20260505162856 | 78 | 192 | 10.0 | 15.0 | 0.00 | 0.00 | 0.00 | 74 | 1005.9 |
| 20260505162352 | 78 | 224 | 15.0 | 21.0 | 0.00 | 0.00 | 0.00 | 74 | 1005.8 |
| 20260505161849 | 78 | 230 | 7.0 | 18.0 | 0.00 | 0.00 | 0.00 | 74 | 1005.9 |
| 20260505161346 | 78 | 207 | 13.0 | 15.0 | 0.00 | 0.00 | 0.00 | 72 | 1005.8 |
| 20260505160843 | 79 | 221 | 13.0 | 16.0 | 0.00 | 0.00 | 0.00 | 72 | 1005.7 |
| 20260505160341 | 78 | 213 | 9.0 | 20.0 | 0.00 | 0.00 | 0.00 | 73 | 1005.6 |
| 20260505153320 | 77 | 239 | 10.0 | 17.0 | 0.00 | 0.00 | 0.00 | 75 | 1006.0 |
| 20260505152817 | 77 | 245 | 10.0 | 16.0 | 0.00 | 0.00 | 0.00 | 76 | 1005.9 |
| 20260505152314 | 77 | 208 | 12.0 | 18.0 | 0.00 | 0.00 | 0.00 | 76 | 1006.1 |
| 20260505151808 | 77 | 182 | 7.0 | 16.0 | 0.00 | 0.00 | 0.00 | 76 | 1006.2 |
| 20260505151305 | 76 | 228 | 4.0 | 15.0 | 0.00 | 0.00 | 0.00 | 77 | 1006.4 |
| 20260505150802 | 76 | 190 | 13.0 | 16.0 | 0.00 | 0.00 | 0.00 | 77 | 1006.2 |
| 20260505150259 | 76 | 241 | 11.0 | 14.0 | 0.00 | 0.00 | 0.00 | 77 | 1006.3 |
| 20260505140224 | 74 | 228 | 8.0 | 9.0 | 0.00 | 0.00 | 0.00 | 81 | 1006.2 |
| 20260505130147 | 72 | 237 | 6.0 | 8.0 | 0.00 | 0.00 | 0.00 | 84 | 1005.3 |
| 20260505124637 | 72 | 229 | 9.0 | 13.0 | 0.00 | 0.00 | 0.00 | 84 | 1005.6 |
| 20260505124134 | 72 | 208 | 3.0 | 10.0 | 0.00 | 0.00 | 0.00 | 84 | 1005.7 |
| 20260505123630 | 72 | 181 | 7.0 | 9.0 | 0.00 | 0.00 | 0.00 | 84 | 1005.3 |
| 20260505123127 | 71 | 229 | 9.0 | 11.0 | 0.00 | 0.00 | 0.00 | 85 | 1005.3 |
| 20260505122623 | 71 | 173 | 7.0 | 13.0 | 0.00 | 0.00 | 0.00 | 85 | 1005.0 |
| 20260505122120 | 71 | 170 | 5.0 | 15.0 | 0.00 | 0.00 | 0.00 | 85 | 1005.0 |
| 20260505121611 | 71 | 238 | 6.0 | 7.0 | 0.00 | 0.00 | 0.00 | 85 | 1004.8 |
| 20260505121108 | 71 | 165 | 5.0 | 11.0 | 0.00 | 0.00 | 0.00 | 85 | 1005.0 |
| 20260505120604 | 71 | 201 | 7.0 | 10.0 | 0.00 | 0.00 | 0.00 | 85 | 1004.9 |
| 20260505120100 | 71 | 192 | 7.0 | 10.0 | 0.00 | 0.00 | 0.00 | 85 | 1005.2 |
| 20260505115554 | 71 | 236 | 5.0 | 7.0 | 0.00 | 0.00 | 0.00 | 85 | 1005.0 |
| 20260505115052 | 71 | 157 | 11.0 | 14.0 | 0.00 | 0.00 | 0.00 | 85 | 1004.8 |
| 20260505114549 | 71 | 191 | 7.0 | 9.0 | 0.00 | 0.00 | 0.00 | 85 | 1004.9 |
| 20260505114045 | 71 | 209 | 5.0 | 10.0 | 0.00 | 0.00 | 0.00 | 85 | 1004.9 |
| 20260505113542 | 71 | 172 | 6.0 | 11.0 | 0.00 | 0.00 | 0.00 | 85 | 1005.1 |
| 20260505113038 | 71 | 205 | 7.0 | 11.0 | 0.00 | 0.00 | 0.00 | 85 | 1005.0 |
| 20260505112534 | 71 | 195 | 5.0 | 9.0 | 0.00 | 0.00 | 0.00 | 85 | 1005.0 |
| 20260505112033 | 71 | 140 | 6.0 | 8.0 | 0.00 | 0.00 | 0.00 | 85 | 1004.9 |
| 20260505111526 | 71 | 211 | 6.0 | 9.0 | 0.00 | 0.00 | 0.00 | 85 | 1004.9 |
| 20260505111022 | 71 | 210 | 9.0 | 13.0 | 0.00 | 0.00 | 0.00 | 85 | 1005.0 |
| 20260505110514 | 71 | 206 | 7.0 | 10.0 | 0.00 | 0.00 | 0.00 | 85 | 1005.0 |